913  
SXUS52 KJAX 162213  
OSOJAX  
OTHER SURFACE OBSERVATIONS  
NATIONAL WEATHER SERVICE JACKSONVILLE FL  
600 PM EDT MON SEP 16 2019  
 
FLZ020>025-030>033-035>038-040-162300-   
..FLORIDA
 
 
 
CITY SKY/WX TMP DP RH WIND PRES REMARKS  
CECIL FIELD SUNNY 93 70 46 N7 29.93S  
HERLONG FIELD NOT AVBL  
FERNANDINA BCH NOT AVBL  
LAKE CITY FAIR 90 68 48 N7 29.94S  
JUNIPER SPGS NOT AVBL  
BUNNELL NOT AVBL  
KEYSTONE HGTS CLEAR 90 64 43 N6 29.93S  

 
 
GAZ132>136-149>154-162>166-162300-   
..GEORGIA
 
 
 
CITY SKY/WX TMP DP RH WIND PRES REMARKS  
JESUP FAIR 93 63 36 N5 29.93  
HOMERVILLE FAIR 91 59 33 NE7 29.95S  
SWAINSBORO FAIR 95 55 26 N8 29.96F  
CORDELE NOT AVBL  
EASTMAN FAIR 95 57 28 E9 29.98F  

 
 
PLEASE NOTE: THESE OBSERVATIONS ARE NOT QUALITY CONTROLLED AND MAY  
NOT BE AVAILABLE AT ALL TIMES.  

 
 
 
CLICK HERE TO GO TO PREVIOUS BULLETINS.

The Nexlab FL Page
The Nexlab GA Page Main Text Page